Location: Unspecified
(0.0000°N, 0.0000°E)
Time: 16:35:36
(UTC+00:00)

Vanguard 2 - Pass Details

Date: 14 December 2017
Orbit: 553 x 2939 km, 32.9° (Epoch: 20 July)

Event Time Altitude Azimuth Distance (km) Brightness Sun altitude
Rises 01:45:40 0° 267° (W) 3,892 - -54.4°
Reaches altitude 10° 01:48:35 10° 253° (WSW) 3,242 - -53.9°
Maximum altitude 01:55:18 25° 200° (SSW) 2,903 - -52.6°
Exits shadow 01:57:01 24° 186° (S) 3,107 10.6 -52.3°
Drops below altitude 10° 02:05:01 10° 150° (SSE) 4,803 12.0 -50.7°
Sets 02:10:41 0° 139° (SE) 6,208 12.8 -49.6°
